PBD6570 USCC-UUEE

Flight info

Callsign PBD6570
Flight time N/A
Altitude 36000
Route BEDOT2F BEDOT L158 DIMGI DIMGI3W
Aircraft B738/M-SADFGHIJ1J4RWY/HB1

Departure

Time 2026-05-05 21:18
Airport Kurchatov Chelyabinsk International Airport (USCC)

Arrival

Time N/A
Airport Sheremetyevo International Airport (UUEE)
Time Latitude Longitude Altitude Speed Heading
2026-05-05 20:46 55.29888 61.50980 747 ft 0 kts 193°
2026-05-05 21:06 55.29896 61.50983 747 ft 2 kts 193°
2026-05-05 21:06 55.29905 61.50987 747 ft 2 kts 191°
2026-05-05 21:06 55.29920 61.50988 747 ft 2 kts 171°
2026-05-05 21:07 55.29935 61.50981 748 ft 2 kts 157°
2026-05-05 21:07 55.29948 61.50968 748 ft 2 kts 142°
2026-05-05 21:07 55.29959 61.50950 748 ft 2 kts 127°
2026-05-05 21:07 55.29966 61.50927 748 ft 2 kts 112°
2026-05-05 21:08 55.29969 61.50912 748 ft 1 kts 103°
2026-05-05 21:08 55.29970 61.50905 748 ft 0 kts 103°
2026-05-05 21:10 55.29968 61.50919 748 ft 0 kts 103°
2026-05-05 21:11 55.29966 61.50932 748 ft 2 kts 103°
2026-05-05 21:11 55.29958 61.50994 747 ft 7 kts 104°
2026-05-05 21:11 55.29942 61.51109 747 ft 11 kts 104°
2026-05-05 21:11 55.29921 61.51262 745 ft 13 kts 103°
2026-05-05 21:12 55.29901 61.51409 744 ft 12 kts 104°
2026-05-05 21:12 55.29890 61.51510 743 ft 0 kts 94°
2026-05-05 21:12 55.29894 61.51524 743 ft 2 kts 53°
2026-05-05 21:12 55.29916 61.51556 743 ft 5 kts 24°
2026-05-05 21:13 55.29960 61.51577 743 ft 7 kts 21°
2026-05-05 21:13 55.29979 61.51666 742 ft 9 kts 101°
2026-05-05 21:13 55.29961 61.51799 741 ft 12 kts 104°
2026-05-05 21:13 55.29941 61.51941 740 ft 11 kts 104°
2026-05-05 21:14 55.29922 61.52076 739 ft 11 kts 104°
2026-05-05 21:14 55.29903 61.52216 738 ft 13 kts 104°
2026-05-05 21:14 55.29881 61.52377 736 ft 12 kts 104°
2026-05-05 21:14 55.29907 61.52486 735 ft 10 kts 44°
2026-05-05 21:15 55.29958 61.52570 734 ft 9 kts 44°
2026-05-05 21:15 55.30006 61.52652 734 ft 9 kts 45°
2026-05-05 21:15 55.30055 61.52707 733 ft 7 kts 13°
2026-05-05 21:15 55.30110 61.52728 733 ft 9 kts 14°
2026-05-05 21:16 55.30189 61.52761 731 ft 12 kts 13°
2026-05-05 21:16 55.30246 61.52741 731 ft 7 kts 298°
2026-05-05 21:16 55.30252 61.52710 731 ft 0 kts 285°
2026-05-05 21:17 55.30274 61.52546 734 ft 43 kts 284°
2026-05-05 21:17 55.30343 61.52034 739 ft 85 kts 285°
2026-05-05 21:17 55.30612 61.50090 757 ft 155 kts 284°
2026-05-05 21:17 55.30896 61.48061 1012 ft 176 kts 284°
2026-05-05 21:18 55.31166 61.46088 1721 ft 163 kts 282°
2026-05-05 21:18 55.31366 61.44787 1995 ft 168 kts 291°
2026-05-05 21:18 55.32381 61.42664 2544 ft 172 kts 320°
2026-05-05 21:18 55.33273 61.41304 2927 ft 174 kts 313°
2026-05-05 21:19 55.34043 61.39700 3323 ft 172 kts 307°
2026-05-05 21:19 55.34789 61.38045 3712 ft 174 kts 308°
2026-05-05 21:19 55.35559 61.36379 4064 ft 179 kts 309°
2026-05-05 21:19 55.36385 61.34610 4256 ft 192 kts 308°
2026-05-05 21:20 55.37278 61.32699 4416 ft 207 kts 308°
2026-05-05 21:20 55.38225 61.30673 4569 ft 221 kts 308°
2026-05-05 21:20 55.39243 61.28492 4664 ft 237 kts 308°
2026-05-05 21:20 55.40315 61.26194 4798 ft 249 kts 308°
2026-05-05 21:21 55.41389 61.23687 4960 ft 268 kts 300°
2026-05-05 21:21 55.41885 61.21699 5471 ft 267 kts 284°
2026-05-05 21:21 55.42056 61.17331 6216 ft 273 kts 267°
2026-05-05 21:21 55.41944 61.14028 7078 ft 270 kts 266°
2026-05-05 21:22 55.41872 61.11836 7534 ft 272 kts 268°
2026-05-05 21:22 55.41793 61.08503 8177 ft 276 kts 269°
2026-05-05 21:22 55.41723 61.04033 9054 ft 279 kts 270°
2026-05-05 21:22 55.41681 61.00622 9699 ft 282 kts 270°
2026-05-05 21:23 55.41637 60.97132 10261 ft 288 kts 270°
2026-05-05 21:23 55.41608 60.94767 10472 ft 299 kts 270°
2026-05-05 21:23 55.41540 60.89750 10987 ft 318 kts 270°
2026-05-05 21:23 55.41480 60.85734 11361 ft 332 kts 269°
2026-05-05 21:24 55.41202 60.81723 11936 ft 339 kts 258°
2026-05-05 21:24 55.40735 60.79025 12384 ft 343 kts 251°
2026-05-05 21:24 55.39483 60.73850 13276 ft 348 kts 246°
2026-05-05 21:24 55.38456 60.69999 13925 ft 351 kts 246°
2026-05-05 21:25 55.37428 60.66111 14542 ft 356 kts 247°
2026-05-05 21:25 55.36743 60.63455 14975 ft 358 kts 248°
2026-05-05 21:25 55.35399 60.58117 15811 ft 364 kts 248°
2026-05-05 21:25 55.34376 60.53982 16420 ft 368 kts 249°
2026-05-05 21:26 55.33703 60.51249 16824 ft 371 kts 249°
2026-05-05 21:26 55.32333 60.45686 17609 ft 377 kts 249°
2026-05-05 21:26 55.31641 60.42881 18023 ft 379 kts 249°
2026-05-05 21:26 55.30589 60.38627 18595 ft 383 kts 249°
2026-05-05 21:27 55.29517 60.34305 19186 ft 386 kts 248°
2026-05-05 21:27 55.28074 60.28505 19945 ft 391 kts 248°
2026-05-05 21:27 55.27338 60.25556 20330 ft 393 kts 248°
2026-05-05 21:27 55.25867 60.19647 21050 ft 398 kts 249°
2026-05-05 21:28 55.25171 60.16647 21402 ft 400 kts 251°
2026-05-05 21:28 55.24086 60.10484 22120 ft 402 kts 259°
2026-05-05 21:28 55.23732 60.07263 22482 ft 403 kts 263°
2026-05-05 21:28 55.23258 60.00779 23114 ft 408 kts 266°
2026-05-05 21:29 55.22994 59.95802 23683 ft 409 kts 267°
2026-05-05 21:29 55.22834 59.92519 23983 ft 412 kts 267°
2026-05-05 21:29 55.22592 59.87492 24467 ft 414 kts 267°
2026-05-05 21:29 55.22343 59.82468 24944 ft 417 kts 267°
2026-05-05 21:30 55.22082 59.77389 25399 ft 420 kts 267°
2026-05-05 21:30 55.21753 59.70591 25955 ft 424 kts 269°
2026-05-05 21:30 55.21699 59.67166 26265 ft 424 kts 272°
2026-05-05 21:30 55.21749 59.61953 26717 ft 426 kts 275°
2026-05-05 21:31 55.21941 59.55047 27238 ft 429 kts 276°
2026-05-05 21:31 55.22055 59.51609 27536 ft 430 kts 276°
2026-05-05 21:31 55.22289 59.44569 28048 ft 434 kts 276°
2026-05-05 21:31 55.22454 59.39307 28460 ft 436 kts 276°
2026-05-05 21:32 55.22557 59.35817 28712 ft 438 kts 276°
2026-05-05 21:32 55.22712 59.30371 29074 ft 441 kts 275°
2026-05-05 21:32 55.22855 59.24972 29447 ft 443 kts 275°
2026-05-05 21:32 55.22994 59.19512 29847 ft 444 kts 275°
2026-05-05 21:33 55.23169 59.12271 30325 ft 447 kts 275°
2026-05-05 21:33 55.23254 59.08648 30511 ft 449 kts 275°
2026-05-05 21:33 55.23378 59.03174 31005 ft 447 kts 275°
2026-05-05 21:33 55.23537 58.95932 31664 ft 443 kts 274°
2026-05-05 21:34 55.23655 58.90479 32050 ft 443 kts 274°
2026-05-05 21:34 55.23769 58.85108 32462 ft 441 kts 274°
2026-05-05 21:34 55.23843 58.81546 32788 ft 439 kts 274°
2026-05-05 21:34 55.23987 58.74417 33301 ft 438 kts 274°
2026-05-05 21:35 55.24057 58.70905 33508 ft 438 kts 274°
2026-05-05 21:35 55.24196 58.63825 34055 ft 435 kts 274°
2026-05-05 21:35 55.24262 58.60347 34335 ft 433 kts 274°
2026-05-05 21:35 55.24392 58.53355 34748 ft 432 kts 274°
2026-05-05 21:36 55.24488 58.48060 35006 ft 431 kts 274°
2026-05-05 21:36 55.24551 58.44543 35154 ft 432 kts 274°
2026-05-05 21:36 55.24643 58.39315 35405 ft 431 kts 274°
2026-05-05 21:36 55.24733 58.34047 35673 ft 430 kts 272°
2026-05-05 21:37 55.24820 58.28756 35935 ft 429 kts 272°
2026-05-05 21:37 55.24906 58.23490 36199 ft 428 kts 272°
2026-05-05 21:37 55.24987 58.18338 36475 ft 427 kts 272°
2026-05-05 21:37 55.25095 58.11416 36777 ft 427 kts 273°
2026-05-05 21:38 55.25270 58.06222 37049 ft 426 kts 275°
2026-05-05 21:38 55.25450 58.02802 37228 ft 425 kts 276°
2026-05-05 21:38 55.25773 57.97623 37463 ft 425 kts 277°
2026-05-05 21:38 55.26228 57.90811 37737 ft 425 kts 277°
2026-05-05 21:39 55.26457 57.87367 37872 ft 425 kts 277°
2026-05-05 21:39 55.26790 57.82243 37967 ft 426 kts 277°
2026-05-05 21:39 55.27536 57.70166 37974 ft 424 kts 276°
2026-05-05 21:40 55.28137 57.59891 37977 ft 423 kts 276°
2026-05-05 21:40 55.28620 57.51396 37983 ft 423 kts 276°
2026-05-05 21:41 55.29192 57.41128 37968 ft 423 kts 276°
2026-05-05 21:41 55.29756 57.30788 37974 ft 423 kts 275°
2026-05-05 21:42 55.30313 57.20446 37985 ft 423 kts 275°
2026-05-05 21:42 55.30855 57.10205 37966 ft 422 kts 275°
2026-05-05 21:43 55.31389 56.99979 37976 ft 422 kts 275°
2026-05-05 21:43 55.32003 56.88039 37955 ft 422 kts 275°
2026-05-05 21:44 55.32521 56.77784 37950 ft 423 kts 275°
2026-05-05 21:44 55.32950 56.69147 37957 ft 423 kts 275°
2026-05-05 21:45 55.33450 56.58921 37949 ft 423 kts 275°
2026-05-05 21:45 55.34026 56.46906 37942 ft 422 kts 275°
2026-05-05 21:46 55.34507 56.36675 37949 ft 422 kts 275°
2026-05-05 21:46 55.34909 56.27993 37947 ft 423 kts 275°
2026-05-05 21:47 55.35453 56.16020 37949 ft 423 kts 275°
2026-05-05 21:47 55.35914 56.05673 37940 ft 423 kts 275°
2026-05-05 21:48 55.36289 55.97085 37936 ft 423 kts 275°
2026-05-05 21:48 55.36731 55.86776 37940 ft 423 kts 275°
2026-05-05 21:49 55.37163 55.76507 37926 ft 422 kts 275°
2026-05-05 21:49 55.37658 55.64481 37938 ft 423 kts 275°
2026-05-05 21:50 55.38072 55.54196 37928 ft 422 kts 275°
2026-05-05 21:50 55.38410 55.45625 37933 ft 422 kts 275°
2026-05-05 21:51 55.38874 55.33614 37931 ft 423 kts 274°
2026-05-05 21:51 55.39260 55.23216 37928 ft 422 kts 273°
2026-05-05 21:52 55.39561 55.07718 37930 ft 423 kts 271°
2026-05-05 21:53 55.39673 54.99049 37926 ft 424 kts 271°
2026-05-05 21:53 55.39833 54.86987 37917 ft 423 kts 272°
2026-05-05 21:54 55.39951 54.78334 37920 ft 423 kts 272°
2026-05-05 21:54 55.40110 54.66327 37919 ft 422 kts 272°
2026-05-05 21:55 55.40241 54.56022 37919 ft 423 kts 272°
2026-05-05 21:55 55.40364 54.45671 37919 ft 422 kts 272°
2026-05-05 21:56 55.40459 54.37111 37923 ft 422 kts 272°
2026-05-05 21:56 55.40568 54.26626 37925 ft 422 kts 271°
2026-05-05 21:57 55.40667 54.16291 37928 ft 422 kts 271°
2026-05-05 21:57 55.40756 54.05940 37922 ft 422 kts 271°
2026-05-05 21:58 55.40837 53.95686 37923 ft 422 kts 271°
2026-05-05 21:58 55.40912 53.85356 37916 ft 421 kts 271°
2026-05-05 21:59 55.40988 53.73334 37919 ft 422 kts 271°
2026-05-05 21:59 55.41036 53.64782 37915 ft 422 kts 271°
2026-05-05 22:00 55.41084 53.54464 37912 ft 421 kts 271°
2026-05-05 22:00 55.41129 53.42433 37920 ft 423 kts 271°
2026-05-05 22:01 55.41155 53.33774 37907 ft 422 kts 270°
2026-05-05 22:01 55.41180 53.23402 37915 ft 422 kts 270°
2026-05-05 22:02 55.41196 53.13119 37907 ft 422 kts 270°
2026-05-05 22:02 55.41203 53.01113 37908 ft 422 kts 270°
2026-05-05 22:03 55.41200 52.90800 37915 ft 422 kts 270°
2026-05-05 22:03 55.41190 52.82201 37910 ft 421 kts 270°
2026-05-05 22:04 55.41167 52.70164 37905 ft 421 kts 270°
2026-05-05 22:04 55.41143 52.61608 37913 ft 420 kts 270°
2026-05-05 22:05 55.41099 52.49650 37914 ft 419 kts 270°
2026-05-05 22:05 55.41060 52.41126 37912 ft 420 kts 270°
2026-05-05 22:06 55.41006 52.30769 37906 ft 420 kts 269°
2026-05-05 22:06 55.40942 52.20483 37911 ft 420 kts 269°
2026-05-05 22:07 55.40870 52.10174 37912 ft 420 kts 269°
2026-05-05 22:07 55.40790 51.99939 37912 ft 420 kts 269°
2026-05-05 22:08 55.40702 51.89724 37912 ft 419 kts 269°
2026-05-05 22:08 55.40605 51.79499 37905 ft 419 kts 269°
2026-05-05 22:09 55.40499 51.69264 37910 ft 420 kts 269°
2026-05-05 22:09 55.40384 51.58979 37905 ft 419 kts 269°
2026-05-05 22:10 55.40261 51.48706 37894 ft 419 kts 269°
2026-05-05 22:10 55.40130 51.38491 37900 ft 419 kts 269°
2026-05-05 22:11 55.39989 51.28202 37893 ft 418 kts 268°
2026-05-05 22:11 55.39840 51.17950 37898 ft 420 kts 268°
2026-05-05 22:12 55.39699 51.07735 37901 ft 418 kts 269°
2026-05-05 22:12 55.39642 50.97476 37894 ft 419 kts 269°
2026-05-05 22:13 55.39603 50.87209 37900 ft 419 kts 269°
2026-05-05 22:13 55.39550 50.76937 37895 ft 418 kts 269°
2026-05-05 22:14 55.39482 50.66727 37892 ft 418 kts 269°
2026-05-05 22:14 55.39402 50.56508 37888 ft 418 kts 269°
2026-05-05 22:15 55.39311 50.46304 37886 ft 417 kts 269°
2026-05-05 22:15 55.39211 50.36150 37890 ft 418 kts 269°
2026-05-05 22:16 55.39102 50.25815 37891 ft 418 kts 268°
2026-05-05 22:16 55.38985 50.15576 37895 ft 419 kts 268°
2026-05-05 22:17 55.38860 50.05401 37890 ft 419 kts 268°
2026-05-05 22:17 55.38799 49.95168 37892 ft 418 kts 271°
2026-05-05 22:18 55.39208 49.84940 37891 ft 417 kts 275°
2026-05-05 22:18 55.39776 49.74792 37888 ft 417 kts 275°
2026-05-05 22:19 55.40321 49.64717 37895 ft 417 kts 275°
2026-05-05 22:19 55.40838 49.54494 37894 ft 417 kts 275°
2026-05-05 22:20 55.41409 49.42617 37889 ft 417 kts 275°
2026-05-05 22:20 55.41806 49.34108 37885 ft 417 kts 274°
2026-05-05 22:21 55.42267 49.23959 37878 ft 417 kts 274°
2026-05-05 22:21 55.42724 49.13720 37869 ft 418 kts 274°
2026-05-05 22:22 55.43169 49.03542 37870 ft 418 kts 273°
2026-05-05 22:22 55.43605 48.93384 37881 ft 418 kts 273°
2026-05-05 22:23 55.44035 48.83149 37879 ft 418 kts 274°
2026-05-05 22:23 55.44455 48.72959 37873 ft 418 kts 273°
2026-05-05 22:24 55.44864 48.62830 37876 ft 417 kts 274°
2026-05-05 22:24 55.45531 48.52628 37874 ft 418 kts 280°
2026-05-05 22:25 55.46984 48.42739 37870 ft 419 kts 286°
2026-05-05 22:25 55.48724 48.32937 37871 ft 420 kts 286°